Location: Stara Lesna
(49.1528°N, 20.2911°E)
Time: 03:33:43
(UTC+02:00)

SeaSat 1 - Pass Details

Date: 13 July 2020
Orbit: 744 x 748 km, 108.0° (Epoch: 11 August)

Event Time Altitude Azimuth Distance (km) Brightness Sun altitude
Rises 01:39:22 0° 39° (NE) 3,201 6.9 -18.0°
Reaches altitude 10° 01:42:03 10° 53° (NE) 2,273 5.7 -17.9°
Maximum altitude 01:46:03 24° 107° (ESE) 1,505 4.0 -17.8°
Enters shadow 01:48:23 17° 146° (SE) 1,803 4.1 -17.7°
